Location: Gloden
(48.4833°N, 15.3167°E)
Time: 02:06:43
(UTC+00:00)

ITUPSAT 1 - Pass Details

Date: 17 May 2021
Orbit: 700 x 713 km, 98.6° (Epoch: 24 June)

Event Time Altitude Azimuth Distance (km) Brightness Sun altitude
Rises 19:50:02 0° 2° (N) 3,116 ? -10.5°
Reaches altitude 10° 19:52:56 10° 344° (NNW) 2,189 ? -10.8°
Maximum altitude 19:56:06 18° 302° (WNW) 1,705 ? -11.1°
Drops below altitude 10° 19:59:15 10° 260° (W) 2,174 ? -11.5°
Sets 20:02:07 0° 242° (WSW) 3,086 ? -11.8°
